Weather History for Klawock, AK

Change the Weather History Date:

Monday, January 21, 2013

  Actual Average Record
Temperature  
Mean Temperature 40 °F -  
Max Temperature 44 °F 37 °F 52 °F (2014)
Min Temperature 36 °F 29 °F 15 °F (1999)
Degree Days  
Heating Degree Days 25    
Moisture  
Dew Point 37 °F    
Average Humidity 85    
Maximum Humidity 93    
Minimum Humidity 76    
Precipitation  
Precipitation 0.00 in - - ()
Sea Level Pressure  
Sea Level Pressure 30.01 in    
Wind  
Wind Speed 1 mph (NE)    
Max Wind Speed 5 mph    
Max Gust Speed -    
Visibility 10 miles    
Events      
Averages and records for this station are not official NWS values.
T = Trace of Precipitation, MM = Missing Value Source: NWS Daily Summary

Daily Weather History Graph

Daily Weather History Graph

Search for Another Location

Airport:

Trip Planner

Search our weather history database for the weather conditions in past years. The results will help you decide how hot, cold, wet, or windy it might be!

Date:

Astronomy

Jan. 21, 2013 Rise Set
Actual Time 8:02 AM AKST 4:05 PM AKST
Civil Twilight 7:20 AM AKST 4:47 PM AKST
Nautical Twilight 6:34 AM AKST 5:33 PM AKST
Astronomical Twilight 5:50 AM AKST 6:17 PM AKST
Moon 11:45 AM AKST (1/21) 3:41 AM AKST (1/21)
Length of Visible Light 9h 27m
Length of Day
8h 02m
Waxing Gibbous, 76% of the Moon is Illuminated
Jan 21
Waxing Gibbous
Jan 26
Full
Feb 3
Last Quarter
Feb 9
New
Feb 17
First Quarter

Hourly Weather History & Observations

Time (AKST) Temp. Windchill Dew Point Humidity Pressure Visibility Wind Dir Wind Speed Gust Speed Precip Events Conditions
12:53 AM 42.1 °F 40.2 °F 39.0 °F 89% 30.16 in 10.0 mi NE 3.5 mph - N/A   Overcast
1:53 AM 42.1 °F - 37.9 °F 85% 30.15 in 10.0 mi Calm Calm - N/A   Overcast
2:46 AM 42.8 °F - 37.4 °F 81% 30.13 in 10.0 mi Calm Calm - N/A   Overcast
3:53 AM 42.1 °F - 37.9 °F 85% 30.14 in 10.0 mi Calm Calm - N/A   Overcast
4:53 AM 42.1 °F - 39.0 °F 89% 30.12 in 10.0 mi Calm Calm - N/A   Overcast
5:53 AM 42.1 °F 39.2 °F 37.9 °F 85% 30.10 in 10.0 mi NE 4.6 mph - N/A   Overcast
6:53 AM 39.9 °F - 37.9 °F 93% 30.09 in 10.0 mi Calm Calm - N/A   Mostly Cloudy
7:02 AM 39.2 °F - 37.4 °F 93% 30.08 in 10.0 mi Calm Calm - N/A   Scattered Clouds
7:53 AM 37.9 °F 34.4 °F 36.0 °F 93% 30.07 in 10.0 mi NE 4.6 mph - N/A   Partly Cloudy
8:42 AM 39.2 °F - 37.4 °F 93% 30.07 in 10.0 mi Calm Calm - N/A   Overcast
8:53 AM 39.9 °F - 37.9 °F 93% 30.07 in 10.0 mi Calm Calm - N/A   Overcast
9:39 AM 42.8 °F - 37.4 °F 81% 30.06 in 10.0 mi Calm Calm - N/A   Overcast
9:53 AM 42.1 °F 40.2 °F 37.9 °F 85% 30.06 in 10.0 mi ENE 3.5 mph - N/A   Overcast
10:05 AM 42.8 °F - 37.4 °F 81% 30.06 in 10.0 mi Calm Calm - N/A   Overcast
10:53 AM 44.1 °F - 37.9 °F 79% 30.05 in 10.0 mi Calm Calm - N/A   Overcast
11:53 AM 44.1 °F - 37.9 °F 79% 30.03 in 10.0 mi Calm Calm - N/A   Overcast
12:53 PM 44.1 °F - 37.0 °F 76% 30.01 in 10.0 mi Calm Calm - N/A   Overcast
1:53 PM 44.1 °F - 37.0 °F 76% 29.99 in 10.0 mi Calm Calm - N/A   Overcast
2:53 PM 43.0 °F - 37.0 °F 80% 29.97 in 10.0 mi Calm Calm - N/A   Overcast
3:53 PM 42.1 °F - 37.0 °F 82% 29.95 in 10.0 mi Calm Calm - N/A   Mostly Cloudy
4:25 PM 41.0 °F - 35.6 °F 81% 29.93 in 10.0 mi Calm Calm - N/A   Scattered Clouds
4:53 PM 39.9 °F - 36.0 °F 86% 29.92 in 10.0 mi Calm Calm - N/A   Partly Cloudy
5:53 PM 39.0 °F 36.8 °F 35.1 °F 86% 29.91 in 10.0 mi East 3.5 mph - N/A   Clear
6:53 PM 37.9 °F - 34.0 °F 86% 29.88 in 10.0 mi Calm Calm - N/A   Clear
7:53 PM 36.0 °F 33.3 °F 33.1 °F 89% 29.86 in 10.0 mi NE 3.5 mph - N/A   Clear
8:53 PM 37.0 °F 34.5 °F 34.0 °F 89% 29.85 in 10.0 mi ENE 3.5 mph - N/A   Clear
9:53 PM 37.9 °F - 35.1 °F 89% 29.83 in 10.0 mi Calm Calm - N/A   Clear
10:53 PM 37.9 °F - 34.0 °F 86% 29.82 in 10.0 mi Calm Calm - N/A   Clear
11:53 PM 37.9 °F 34.4 °F 34.0 °F 86% 29.81 in 10.0 mi NE 4.6 mph - N/A   Clear